FW5968 Weather Reports


time (UTC)temp
C
wind
direction
speed
KPH
gust
KPH
rain 1hr
cm
rain 24hr
cm
rain mn
cm
humidity
%
barometer
mb
20260904003016 28 0.0 0.0 0.00 0.00 0.00 55 1017.8
20260904002036 28 0.0 0.0 0.00 0.00 0.00 54 1017.9
20260904001015 28 0.0 0.0 0.00 0.00 0.00 54 1018.1
20260904000056 28 0.0 0.0 0.00 0.00 0.00 54 1018.2
20260903235016 28 0.0 0.0 0.00 0.00 0.00 54 1018.3
20260903234015 28 0.0 0.0 0.00 0.00 0.00 55 1018.5
20260903233015 28 0.0 0.0 0.00 0.00 0.00 56 1018.4
20260903232016 28 0.0 0.0 0.00 0.00 0.00 59 1018.5
20260903231015 27 0.0 0.0 0.00 0.00 0.00 61 1018.8
20260903230015 27 0.0 0.0 0.00 0.00 0.00 61 1018.6
20260903225036 27 0.0 0.0 0.00 0.00 0.00 61 1018.7
20260903224016 27 0.0 0.0 0.00 0.00 0.00 60 1018.5
20260903223015 27 0.0 0.0 0.00 0.00 0.00 61 1018.7
20260903222016 26 0.0 0.0 0.00 0.00 0.00 64 1018.8
20260903221015 26 0.0 0.0 0.00 0.00 0.00 69 1019.1
20260903220016 25 0.0 0.0 0.00 0.00 0.00 67 1019.5
20260903215015 25 0.0 0.0 0.00 0.00 0.00 66 1019.7
20260903214016 25 0.0 0.0 0.00 0.00 0.00 65 1019.8
20260903213015 26 0.0 0.0 0.00 0.00 0.00 65 1019.8
20260903212016 26 0.0 0.0 0.00 0.00 0.00 65 1019.8
20260903211016 26 0.0 0.0 0.00 0.00 0.00 64 1019.6
20260903210015 26 0.0 0.0 0.00 0.00 0.00 64 1019.2
20260903205035 27 0.0 0.0 0.00 0.00 0.00 63 1018.9
20260903204016 27 0.0 0.0 0.00 0.00 0.00 63 1018.7
20260903203015 28 0.0 0.0 0.00 0.00 0.00 62 1018.5
20260903202055 28 0.0 0.0 0.00 0.00 0.00 62 1018.3
20260903201015 29 0.0 0.0 0.00 0.00 0.00 61 1018.1
20260903200036 30 0.0 0.0 0.00 0.00 0.00 60 1017.8
20260903195016 30 0.0 0.0 0.00 0.00 0.00 59 1017.6
20260903194016 30 0.0 0.0 0.00 0.00 0.00 59 1017.5
20260903193015 30 0.0 0.0 0.00 0.00 0.00 59 1017.4
20260903192036 30 0.0 0.0 0.00 0.00 0.00 60 1017.4
20260903191015 30 0.0 0.0 0.00 0.00 0.00 60 1017.4
20260903190015 31 0.0 0.0 0.00 0.00 0.00 61 1017.2
20260903185015 31 0.0 0.0 0.00 0.00 0.00 62 1017.2
20260903184016 31 0.0 0.0 0.00 0.00 0.00 64 1017.1
20260903183016 31 0.0 0.0 0.00 0.00 0.00 64 1017.1
20260903182016 31 0.0 0.0 0.00 0.00 0.00 64 1017.1
20260903181015 31 0.0 0.0 0.00 0.00 0.00 65 1017.2
20260903180016 31 0.0 0.0 0.00 0.00 0.00 65 1017.4
20260903175015 31 0.0 0.0 0.00 0.00 0.00 65 1017.4
20260903174015 31 0.0 0.0 0.00 0.00 0.00 64 1017.6
20260903173016 31 0.0 0.0 0.00 0.00 0.00 64 1017.6
20260903172015 32 0.0 0.0 0.00 0.00 0.00 64 1017.7
20260903171116 32 0.0 0.0 0.00 0.00 0.00 64 1017.8
20260903170016 33 0.0 0.0 0.00 0.00 0.00 64 1017.9
20260903165015 33 0.0 0.0 0.00 0.00 0.00 64 1017.8
20260903164015 33 0.0 0.0 0.00 0.00 0.00 65 1017.6
20260903163036 33 0.0 0.0 0.00 0.00 0.00 65 1017.5
20260903162015 33 0.0 0.0 0.00 0.00 0.00 65 1017.5
20260903161015 33 0.0 0.0 0.00 0.00 0.00 65 1017.6
20260903160016 33 0.0 0.0 0.00 0.00 0.00 66 1017.7
20260903155015 33 0.0 0.0 0.00 0.00 0.00 66 1017.8
20260903154016 33 0.0 0.0 0.00 0.00 0.00 66 1017.9
20260903153015 33 0.0 0.0 0.00 0.00 0.00 66 1018.0
20260903152016 32 0.0 0.0 0.00 0.00 0.00 66 1018.1
20260903151016 32 0.0 0.0 0.00 0.00 0.00 66 1018.2
20260903150015 32 0.0 0.0 0.00 0.00 0.00 67 1018.2
20260903145016 32 0.0 0.0 0.00 0.00 0.00 67 1018.3
20260903144015 32 0.0 0.0 0.00 0.00 0.00 68 1018.4
20260903143016 32 0.0 0.0 0.00 0.00 0.00 69 1018.5
20260903142015 32 0.0 0.0 0.00 0.00 0.00 69 1018.6
20260903141015 31 0.0 0.0 0.00 0.00 0.00 69 1018.7
20260903140055 31 0.0 0.0 0.00 0.00 0.00 70 1018.7
20260903135015 31 0.0 0.0 0.00 0.00 0.00 70 1018.8
20260903134015 31 0.0 0.0 0.00 0.00 0.00 71 1018.8
20260903133035 31 0.0 0.0 0.00 0.00 0.00 71 1019.0
20260903132015 31 0.0 0.0 0.00 0.00 0.00 71 1019.1
20260903131016 31 0.0 0.0 0.00 0.00 0.00 72 1019.1
20260903130015 30 0.0 0.0 0.00 0.00 0.00 72 1019.2
20260903125016 30 0.0 0.0 0.00 0.00 0.00 73 1019.3
20260903124015 30 0.0 0.0 0.00 0.00 0.00 73 1019.4
20260903123015 30 0.0 0.0 0.00 0.00 0.00 73 1019.4
20260903122016 30 0.0 0.0 0.00 0.00 0.00 74 1019.5
20260903121016 29 0.0 0.0 0.00 0.00 0.00 74 1019.5
20260903120055 29 0.0 0.0 0.00 0.00 0.00 74 1019.5
20260903115015 28 0.0 0.0 0.00 0.00 0.00 75 1019.6
20260903114036 28 0.0 0.0 0.00 0.00 0.00 75 1019.8
20260903113015 28 0.0 0.0 0.00 0.00 0.00 75 1020.0
20260903112016 28 0.0 0.0 0.00 0.00 0.00 75 1020.0
20260903111016 27 0.0 0.0 0.00 0.00 0.00 76 1020.1
20260903110015 27 0.0 0.0 0.00 0.00 0.00 76 1020.1
20260903105016 27 0.0 0.0 0.00 0.00 0.00 76 1020.2
20260903104016 27 0.0 0.0 0.00 0.00 0.00 76 1020.2
20260903103016 26 0.0 0.0 0.00 0.00 0.00 76 1020.2
20260903102015 26 0.0 0.0 0.00 0.00 0.00 76 1020.2
20260903101016 26 0.0 0.0 0.00 0.00 0.00 76 1020.1
20260903100015 26 0.0 0.0 0.00 0.00 0.00 76 1020.0
20260903095017 26 0.0 0.0 0.00 0.00 0.00 76 1020.0
20260903094015 25 0.0 0.0 0.00 0.00 0.00 76 1020.0
20260903093016 25 0.0 0.0 0.00 0.00 0.00 76 1020.0
20260903092015 25 0.0 0.0 0.00 0.00 0.00 76 1019.9
20260903091016 25 0.0 0.0 0.00 0.00 0.00 76 1019.8
20260903090016 25 0.0 0.0 0.00 0.00 0.00 76 1019.7
20260903085036 25 0.0 0.0 0.00 0.00 0.00 76 1019.6
20260903084015 25 0.0 0.0 0.00 0.00 0.00 76 1019.5
20260903083015 25 0.0 0.0 0.00 0.00 0.00 76 1019.4
20260903082016 24 0.0 0.0 0.00 0.00 0.00 76 1019.4
20260903081015 24 0.0 0.0 0.00 0.00 0.00 76 1019.5
20260903080015 24 0.0 0.0 0.00 0.00 0.00 75 1019.4
20260903075015 23 0.0 0.0 0.00 0.00 0.00 75 1019.4
20260903074015 23 0.0 0.0 0.00 0.00 0.00 75 1019.3
20260903073016 23 0.0 0.0 0.00 0.00 0.00 75 1019.4
20260903072015 22 0.0 0.0 0.00 0.00 0.00 75 1019.2
20260903071015 22 0.0 0.0 0.00 0.00 0.00 75 1019.1
20260903070015 22 0.0 0.0 0.00 0.00 0.00 75 1019.2
20260903065016 21 0.0 0.0 0.00 0.00 0.00 75 1019.1
20260903064016 21 0.0 0.0 0.00 0.00 0.00 75 1019.0
20260903063056 21 0.0 0.0 0.00 0.00 0.00 77 1018.9
20260903062016 20 0.0 0.0 0.00 0.00 0.00 75 1018.9
20260903061015 20 0.0 0.0 0.00 0.00 0.00 75 1018.9
20260903060016 20 0.0 0.0 0.00 0.00 0.00 75 1018.9
20260903055015 20 0.0 0.0 0.00 0.00 0.00 75 1018.8
20260903054035 20 0.0 0.0 0.00 0.00 0.00 75 1018.7
20260903053016 20 0.0 0.0 0.00 0.00 0.00 75 1018.8
20260903052015 20 0.0 0.0 0.00 0.00 0.00 75 1018.8
20260903051016 20 0.0 0.0 0.00 0.00 0.00 75 1018.7
20260903050015 20 0.0 0.0 0.00 0.00 0.00 75 1018.8
20260903045016 20 0.0 0.0 0.00 0.00 0.00 75 1018.7
20260903044035 20 0.0 0.0 0.00 0.00 0.00 75 1018.6
20260903043016 20 0.0 0.0 0.00 0.00 0.00 75 1018.5
20260903042015 20 0.0 0.0 0.00 0.00 0.00 75 1018.6
20260903041016 20 0.0 0.0 0.00 0.00 0.00 75 1018.6
20260903040015 21 0.0 0.0 0.00 0.00 0.00 75 1018.6
20260903035015 21 0.0 0.0 0.00 0.00 0.00 74 1018.7
20260903034015 20 0.0 0.0 0.00 0.00 0.00 74 1018.8
20260903033016 20 0.0 0.0 0.00 0.00 0.00 74 1018.8
20260903032015 20 0.0 0.0 0.00 0.00 0.00 74 1018.8
20260903031016 20 0.0 0.0 0.00 0.00 0.00 73 1018.7
20260903030016 20 0.0 0.0 0.00 0.00 0.00 73 1018.9
20260903025036 20 0.0 0.0 0.00 0.00 0.00 73 1018.9
20260903024036 20 0.0 0.0 0.00 0.00 0.00 73 1018.8
20260903023016 20 0.0 0.0 0.00 0.00 0.00 73 1018.8
20260903022015 21 0.0 0.0 0.00 0.00 0.00 72 1018.8
20260903021016 21 0.0 0.0 0.00 0.00 0.00 72 1018.8
20260903020016 21 0.0 0.0 0.00 0.00 0.00 72 1018.6
20260903015016 21 0.0 0.0 0.00 0.00 0.00 72 1018.6
20260903014016 21 0.0 0.0 0.00 0.00 0.00 72 1018.6
20260903013016 21 0.0 0.0 0.00 0.00 0.00 72 1018.7
20260903012015 21 0.0 0.0 0.00 0.00 0.00 72 1018.8
20260903011016 21 0.0 0.0 0.00 0.00 0.00 71 1018.9
20260903010016 21 0.0 0.0 0.00 0.00 0.00 71 1019.0
20260903005015 21 0.0 0.0 0.00 0.00 0.00 71 1019.1
20260903004015 21 0.0 0.0 0.00 0.00 0.00 70 1019.2